24-08-2023, 00:00:04,     64,    0.0,   16.3,   0.00,   0.00, 1013.3,    0.3, -999.0
24-08-2023, 00:00:14,     64,    0.0,   16.2,   0.00,   0.00, 1013.3,    0.3, -999.0
24-08-2023, 00:00:24,     64,    0.0,   16.3,   0.00,   0.00, 1013.3,    0.3, -999.0
24-08-2023, 00:00:34,     64,    0.0,   16.2,   0.00,   0.00, 1013.3,    0.3, -999.0
24-08-2023, 00:00:44,     64,    0.0,   16.2,   0.00,   0.00, 1013.3,    0.3, -999.0
24-08-2023, 00:00:54,     64,    0.0,   16.2,   0.00,   0.00, 1013.3,    0.2, -999.0
24-08-2023, 00:01:04,     64,    0.0,   16.3,   0.00,   0.00, 1013.3,    0.3, -999.0
24-08-2023, 00:01:14,     64,    0.0,   16.2,   0.00,   0.00, 1013.3,    0.3, -999.0
24-08-2023, 00:01:24,     64,    0.0,   16.2,   0.00,   0.00, 1013.3,    0.3, -999.0
24-08-2023, 00:01:34,     64,    0.0,   16.2,   0.00,   0.00, 1013.3,    0.2, -999.0
24-08-2023, 00:01:43,     64,    0.0,   16.2,   0.00,   0.00, 1013.3,    0.3, -999.0
24-08-2023, 00:01:54,     64,    0.0,   16.2,   0.00,   0.00, 1013.3,    0.3, -999.0
24-08-2023, 00:02:04,     64,    0.0,   16.1,   0.00,   0.00, 1013.3,    0.3, -999.0
24-08-2023, 00:02:13,     64,    0.0,   16.1,   0.00,   0.00, 1013.3,    0.2, -999.0
24-08-2023, 00:02:23,     64,    0.0,   16.2,   0.00,   0.00, 1013.3,    0.2, -999.0
24-08-2023, 00:02:34,     64,    0.0,   16.2,   0.00,   0.00, 1013.3,    0.4, -999.0
24-08-2023, 00:02:44,     64,    0.0,   16.3,   0.00,   0.00, 1013.3,    0.2, -999.0
24-08-2023, 00:02:53,     64,    0.0,   16.2,   0.00,   0.00, 1013.3,    0.3, -999.0
24-08-2023, 00:03:03,     64,    0.0,   16.2,   0.00,   0.00, 1013.3,    0.4, -999.0
24-08-2023, 00:03:14,     64,    0.0,   16.2,   0.00,   0.00, 1013.3,    0.3, -999.0
24-08-2023, 00:03:23,     64,    0.0,   16.2,   0.00,   0.00, 1013.3,    0.4, -999.0
24-08-2023, 00:03:33,     64,    0.0,   16.2,   0.00,   0.00, 1013.3,    0.3, -999.0
24-08-2023, 00:03:43,     64,    0.0,   16.3,   0.00,   0.00, 1013.2,    0.4, -999.0
24-08-2023, 00:03:53,     64,    0.0,   16.2,   0.00,   0.00, 1013.3,    0.2, -999.0
24-08-2023, 00:04:03,     64,    0.0,   16.2,   0.00,   0.00, 1013.3,    0.2, -999.0
24-08-2023, 00:04:13,     64,    0.0,   16.2,   0.00,   0.00, 1013.3,    0.2, -999.0
24-08-2023, 00:04:23,     63,    0.0,   16.2,   0.00,   0.00, 1013.2,    0.3, -999.0
24-08-2023, 00:04:33,     64,    0.0,   16.2,   0.00,   0.00, 1013.3,    0.4, -999.0
24-08-2023, 00:04:43,     64,    0.0,   16.2,   0.00,   0.00, 1013.3,    0.2, -999.0
24-08-2023, 00:04:53,     64,    0.0,   16.2,   0.00,   0.00, 1013.2,    0.2, -999.0
24-08-2023, 00:05:03,     64,    0.0,   16.1,   0.00,   0.00, 1013.3,    0.2, -999.0
24-08-2023, 00:05:13,     64,    0.0,   16.3,   0.00,   0.00, 1013.3,    0.3, -999.0
24-08-2023, 00:05:23,     64,    0.0,   16.2,   0.00,   0.00, 1013.3,    0.3, -999.0
24-08-2023, 00:05:33,     64,    0.0,   16.2,   0.00,   0.00, 1013.3,    0.2, -999.0
24-08-2023, 00:05:43,     64,    0.0,   16.2,   0.00,   0.00, 1013.3,    0.2, -999.0
24-08-2023, 00:05:53,     64,    0.0,   16.2,   0.00,   0.00, 1013.3,    0.5, -999.0
24-08-2023, 00:06:03,     64,    0.0,   16.2,   0.00,   0.00, 1013.2,    0.3, -999.0
24-08-2023, 00:06:13,     64,    0.0,   16.1,   0.00,   0.00, 1013.3,    0.2, -999.0
24-08-2023, 00:06:23,     64,    0.0,   16.1,   0.00,   0.00, 1013.2,    0.2, -999.0
24-08-2023, 00:06:33,     64,    0.0,   16.2,   0.00,   0.00, 1013.3,    0.3, -999.0
24-08-2023, 00:06:43,     64,    0.0,   16.1,   0.00,   0.00, 1013.3,    0.3, -999.0
24-08-2023, 00:06:53,     64,    0.0,   16.1,   0.00,   0.00, 1013.3,    0.2, -999.0
24-08-2023, 00:07:03,     64,    0.0,   16.1,   0.00,   0.00, 1013.3,    0.3, -999.0
24-08-2023, 00:07:13,     64,    0.0,   16.1,   0.00,   0.00, 1013.2,    0.2, -999.0
24-08-2023, 00:07:23,     64,    0.0,   16.0,   0.00,   0.00, 1013.3,    0.4, -999.0
24-08-2023, 00:07:33,     64,    0.0,   16.1,   0.00,   0.00, 1013.3,    0.5, -999.0
24-08-2023, 00:07:43,     64,    0.0,   16.0,   0.00,   0.00, 1013.3,    0.1, -999.0
24-08-2023, 00:07:53,     64,    0.0,   16.1,   0.00,   0.00, 1013.3,    0.3, -999.0
24-08-2023, 00:08:03,     64,    0.0,   16.0,   0.00,   0.00, 1013.3,    0.2, -999.0
24-08-2023, 00:08:12,     64,    0.0,   16.0,   0.00,   0.00, 1013.3,    0.2, -999.0
24-08-2023, 00:08:23,     64,    0.0,   16.0,   0.00,   0.00, 1013.3,    0.4, -999.0
24-08-2023, 00:08:33,     64,    0.0,   16.0,   0.00,   0.00, 1013.3,    0.3, -999.0
24-08-2023, 00:08:42,     64,    0.0,   16.0,   0.00,   0.00, 1013.3,    0.3, -999.0
24-08-2023, 00:08:52,     64,    0.0,   16.0,   0.00,   0.00, 1013.3,    0.2, -999.0
24-08-2023, 00:09:03,     64,    0.0,   16.0,   0.00,   0.00, 1013.3,    0.3, -999.0
24-08-2023, 00:09:12,     64,    0.0,   15.8,   0.00,   0.00, 1013.3,    0.2, -999.0
24-08-2023, 00:09:22,     64,    0.0,   15.9,   0.00,   0.00, 1013.2,    0.2, -999.0
24-08-2023, 00:09:32,     63,    0.0,   15.9,   0.00,   0.00, 1013.2,    0.2, -999.0
24-08-2023, 00:09:43,     64,    0.0,   15.9,   0.00,   0.00, 1013.2,    0.4, -999.0
24-08-2023, 00:09:52,     64,    0.0,   15.9,   0.00,   0.00, 1013.2,    0.2, -999.0
24-08-2023, 00:10:02,     64,    0.0,   15.9,   0.00,   0.00, 1013.2,    0.2, -999.0
24-08-2023, 00:10:12,     64,    0.0,   15.9,   0.00,   0.00, 1013.2,    0.3, -999.0
24-08-2023, 00:10:22,     64,    0.0,   15.9,   0.00,   0.00, 1013.2,    0.2, -999.0
24-08-2023, 00:10:32,     64,    0.0,   15.8,   0.00,   0.00, 1013.2,    0.3, -999.0
24-08-2023, 00:10:42,     64,    0.0,   15.9,   0.00,   0.00, 1013.2,    0.4, -999.0
24-08-2023, 00:10:52,     63,    0.0,   16.0,   0.00,   0.00, 1013.2,    0.2, -999.0
24-08-2023, 00:11:02,     64,    0.0,   15.9,   0.00,   0.00, 1013.2,    0.2, -999.0
24-08-2023, 00:11:12,     64,    0.0,   15.9,   0.00,   0.00, 1013.2,    0.3, -999.0
24-08-2023, 00:11:22,     64,    0.0,   15.8,   0.00,   0.00, 1013.2,    0.2, -999.0
24-08-2023, 00:11:32,     64,    0.0,   16.0,   0.00,   0.00, 1013.2,    0.4, -999.0
24-08-2023, 00:11:42,     64,    0.0,   16.0,   0.00,   0.00, 1013.2,    0.2, -999.0
24-08-2023, 00:11:52,     64,    0.0,   16.0,   0.00,   0.00, 1013.2,    0.4, -999.0
24-08-2023, 00:12:02,     64,    0.0,   16.0,   0.00,   0.00, 1013.2,    0.2, -999.0
24-08-2023, 00:12:12,     64,    0.0,   16.0,   0.00,   0.00, 1013.2,    0.4, -999.0
24-08-2023, 00:12:22,     64,    0.0,   16.0,   0.00,   0.00, 1013.2,    0.3, -999.0
24-08-2023, 00:12:32,     64,    0.0,   16.0,   0.00,   0.00, 1013.2,    0.3, -999.0
24-08-2023, 00:12:42,     64,    0.0,   16.0,   0.00,   0.00, 1013.2,    0.2, -999.0
24-08-2023, 00:12:52,     64,    0.0,   16.0,   0.00,   0.00, 1013.3,    0.4, -999.0
24-08-2023, 00:13:02,     64,    0.0,   16.0,   0.00,   0.00, 1013.3,    0.2, -999.0
24-08-2023, 00:13:12,     64,    0.0,   16.0,   0.00,   0.00, 1013.3,    0.2, -999.0
24-08-2023, 00:13:22,     64,    0.0,   16.0,   0.00,   0.00, 1013.3,    0.2, -999.0
24-08-2023, 00:13:32,     64,    0.0,   15.9,   0.00,   0.00, 1013.3,    0.3, -999.0
24-08-2023, 00:13:42,     64,    0.0,   16.0,   0.00,   0.00, 1013.3,    0.1, -999.0
24-08-2023, 00:13:52,     64,    0.0,   16.0,   0.00,   0.00, 1013.3,    0.1, -999.0
24-08-2023, 00:14:01,     64,    0.0,   16.0,   0.00,   0.00, 1013.3,    0.3, -999.0
24-08-2023, 00:14:12,     64,    0.0,   16.0,   0.00,   0.00, 1013.3,    0.2, -999.0
24-08-2023, 00:14:22,     64,    0.0,   16.0,   0.00,   0.00, 1013.3,    0.2, -999.0
24-08-2023, 00:14:31,     64,    0.0,   16.0,   0.00,   0.00, 1013.3,    0.2, -999.0
24-08-2023, 00:14:41,     64,    0.0,   16.0,   0.00,   0.00, 1013.3,    0.2, -999.0
24-08-2023, 00:14:52,     63,    0.0,   16.0,   0.00,   0.00, 1013.3,    0.4, -999.0
24-08-2023, 00:15:02,     64,    0.0,   16.0,   0.00,   0.00, 1013.4,    0.2, -999.0
24-08-2023, 00:15:11,     64,    0.0,   15.9,   0.00,   0.00, 1013.3,    0.2, -999.0
24-08-2023, 00:15:21,     64,    0.0,   16.0,   0.00,   0.00, 1013.3,    0.2, -999.0
24-08-2023, 00:15:32,     64,    0.0,   15.9,   0.00,   0.00, 1013.3,    0.2, -999.0
24-08-2023, 00:15:41,     64,    0.0,   16.0,   0.00,   0.00, 1013.3,    0.2, -999.0
24-08-2023, 00:15:51,     64,    0.0,   15.9,   0.00,   0.00, 1013.3,    0.3, -999.0
24-08-2023, 00:16:02,     64,    0.0,   15.9,   0.00,   0.00, 1013.3,    0.2, -999.0
24-08-2023, 00:16:11,     64,    0.0,   15.9,   0.00,   0.00, 1013.4,    0.3, -999.0
24-08-2023, 00:16:21,     64,    0.0,   15.9,   0.00,   0.00, 1013.4,    0.3, -999.0
24-08-2023, 00:16:31,     65,    0.0,   15.9,   0.00,   0.00, 1013.4,    0.1, -999.0
24-08-2023, 00:16:41,     64,    0.0,   15.9,   0.00,   0.00, 1013.4,    0.2, -999.0
24-08-2023, 00:16:51,     62,    0.0,   15.9,   0.00,   0.00, 1013.4,    0.3, -999.0
24-08-2023, 00:17:01,     64,    0.0,   15.9,   0.00,   0.00, 1013.4,    0.1, -999.0
24-08-2023, 00:17:11,     64,    0.0,   15.9,   0.00,   0.00, 1013.4,    0.2, -999.0
24-08-2023, 00:17:21,     64,    0.0,   15.9,   0.00,   0.00, 1013.4,    0.3, -999.0
24-08-2023, 00:17:31,     64,    0.0,   15.9,   0.00,   0.00, 1013.4,    0.2, -999.0
24-08-2023, 00:17:41,     64,    0.0,   15.9,   0.00,   0.00, 1013.4,    0.3, -999.0
24-08-2023, 00:17:51,     64,    0.0,   15.9,   0.00,   0.00, 1013.4,    0.2, -999.0
24-08-2023, 00:18:01,     63,    0.0,   15.9,   0.00,   0.00, 1013.5,    0.2, -999.0
24-08-2023, 00:18:11,     64,    0.0,   15.8,   0.00,   0.00, 1013.4,    0.3, -999.0
24-08-2023, 00:18:21,     64,    0.0,   15.8,   0.00,   0.00, 1013.4,    0.2, -999.0
24-08-2023, 00:18:31,     64,    0.0,   15.9,   0.00,   0.00, 1013.5,    0.5, -999.0
24-08-2023, 00:18:41,     64,    0.0,   15.8,   0.00,   0.00, 1013.5,    0.1, -999.0
24-08-2023, 00:18:51,     64,    0.0,   15.8,   0.00,   0.00, 1013.4,    0.2, -999.0
24-08-2023, 00:19:01,     64,    0.0,   15.8,   0.00,   0.00, 1013.5,    0.3, -999.0
24-08-2023, 00:19:11,     64,    0.0,   15.7,   0.00,   0.00, 1013.5,    0.2, -999.0
24-08-2023, 00:19:21,     64,    0.0,   15.8,   0.00,   0.00, 1013.4,    0.2, -999.0
24-08-2023, 00:19:31,     64,    0.0,   15.8,   0.00,   0.00, 1013.5,    0.2, -999.0
24-08-2023, 00:19:41,     64,    0.0,   15.8,   0.00,   0.00, 1013.4,    0.3, -999.0
24-08-2023, 00:19:50,     64,    0.0,   15.8,   0.00,   0.00, 1013.5,    0.1, -999.0
24-08-2023, 00:20:01,     64,    0.0,   15.8,   0.00,   0.00, 1013.5,    0.4, -999.0
24-08-2023, 00:20:11,     64,    0.0,   15.8,   0.00,   0.00, 1013.4,    0.3, -999.0
24-08-2023, 00:20:21,     64,    0.0,   15.8,   0.00,   0.00, 1013.5,    0.3, -999.0
24-08-2023, 00:20:30,     64,    0.0,   15.8,   0.00,   0.00, 1013.5,    0.2, -999.0
24-08-2023, 00:20:41,     64,    0.0,   15.7,   0.00,   0.00, 1013.5,    0.3, -999.0
24-08-2023, 00:20:51,     64,    0.0,   15.7,   0.00,   0.00, 1013.5,    0.2, -999.0
24-08-2023, 00:21:00,     64,    0.0,   15.8,   0.00,   0.00, 1013.4,    0.2, -999.0
24-08-2023, 00:21:10,     64,    0.0,   15.8,   0.00,   0.00, 1013.4,    0.3, -999.0
24-08-2023, 00:21:21,     64,    0.0,   15.8,   0.00,   0.00, 1013.4,    0.2, -999.0
24-08-2023, 00:21:30,     64,    0.0,   15.8,   0.00,   0.00, 1013.4,    0.2, -999.0
24-08-2023, 00:21:40,     64,    0.0,   15.8,   0.00,   0.00, 1013.5,    0.1, -999.0
24-08-2023, 00:21:51,     64,    0.0,   15.6,   0.00,   0.00, 1013.4,    0.2, -999.0
24-08-2023, 00:22:00,     64,    0.0,   15.7,   0.00,   0.00, 1013.5,    0.2, -999.0
24-08-2023, 00:22:10,     64,    0.0,   15.7,   0.00,   0.00, 1013.4,    0.2, -999.0
24-08-2023, 00:22:20,     64,    0.0,   15.8,   0.00,   0.00, 1013.4,    0.2, -999.0
24-08-2023, 00:22:30,     64,    0.0,   15.8,   0.00,   0.00, 1013.4,    0.3, -999.0
24-08-2023, 00:22:40,     64,    0.0,   15.7,   0.00,   0.00, 1013.4,    0.2, -999.0
24-08-2023, 00:22:50,     64,    0.0,   15.8,   0.00,   0.00, 1013.4,    0.2, -999.0
24-08-2023, 00:23:00,     64,    0.0,   15.8,   0.00,   0.00, 1013.4,    0.3, -999.0
24-08-2023, 00:23:10,     64,    0.0,   15.7,   0.00,   0.00, 1013.4,    0.2, -999.0
24-08-2023, 00:23:20,     64,    0.0,   15.8,   0.00,   0.00, 1013.4,    0.2, -999.0
24-08-2023, 00:23:30,     64,    0.0,   15.7,   0.00,   0.00, 1013.4,    0.2, -999.0
24-08-2023, 00:23:40,     64,    0.0,   15.8,   0.00,   0.00, 1013.4,    0.2, -999.0
24-08-2023, 00:23:50,     64,    0.0,   15.8,   0.00,   0.00, 1013.4,    0.3, -999.0
24-08-2023, 00:24:00,     64,    0.0,   15.8,   0.00,   0.00, 1013.4,    0.3, -999.0
24-08-2023, 00:24:10,     64,    0.0,   15.7,   0.00,   0.00, 1013.4,    0.3, -999.0
24-08-2023, 00:24:20,     64,    0.0,   15.7,   0.00,   0.00, 1013.4,    0.1, -999.0
24-08-2023, 00:24:30,     64,    0.0,   15.8,   0.00,   0.00, 1013.4,    0.1, -999.0
24-08-2023, 00:24:40,     64,    0.0,   15.8,   0.00,   0.00, 1013.4,    0.2, -999.0
24-08-2023, 00:24:50,     64,    0.0,   15.8,   0.00,   0.00, 1013.4,    0.2, -999.0
24-08-2023, 00:25:00,     64,    0.0,   15.7,   0.00,   0.00, 1013.4,    0.2, -999.0
24-08-2023, 00:25:10,     64,    0.0,   15.7,   0.00,   0.00, 1013.4,    0.2, -999.0
24-08-2023, 00:25:20,     63,    0.0,   15.8,   0.00,   0.00, 1013.4,    0.1, -999.0
24-08-2023, 00:25:30,     64,    0.0,   15.7,   0.00,   0.00, 1013.4,    0.2, -999.0
24-08-2023, 00:25:40,     64,    0.0,   15.8,   0.00,   0.00, 1013.4,    0.2, -999.0
24-08-2023, 00:25:50,     64,    0.0,   15.7,   0.00,   0.00, 1013.4,    0.4, -999.0
24-08-2023, 00:26:00,     64,    0.0,   15.8,   0.00,   0.00, 1013.4,    0.4, -999.0
24-08-2023, 00:26:10,     64,    0.0,   15.7,   0.00,   0.00, 1013.4,    0.1, -999.0
24-08-2023, 00:26:19,     64,    0.0,   15.8,   0.00,   0.00, 1013.4,    0.3, -999.0
24-08-2023, 00:26:30,     64,    0.0,   15.8,   0.00,   0.00, 1013.4,    0.3, -999.0
24-08-2023, 00:26:40,     64,    0.0,   15.8,   0.00,   0.00, 1013.4,    0.2, -999.0
24-08-2023, 00:26:49,     63,    0.0,   15.8,   0.00,   0.00, 1013.4,    0.3, -999.0
24-08-2023, 00:27:00,     64,    0.0,   15.8,   0.00,   0.00, 1013.4,    0.3, -999.0
24-08-2023, 00:27:10,     64,    0.0,   15.9,   0.00,   0.00, 1013.4,    0.3, -999.0
24-08-2023, 00:27:19,     64,    0.0,   15.8,   0.00,   0.00, 1013.4,    0.3, -999.0
24-08-2023, 00:27:29,     64,    0.0,   15.9,   0.00,   0.00, 1013.4,    0.3, -999.0
24-08-2023, 00:27:40,     64,    0.0,   15.8,   0.00,   0.00, 1013.4,    0.2, -999.0
24-08-2023, 00:27:49,     64,    0.0,   15.8,   0.00,   0.00, 1013.4,    0.4, -999.0
24-08-2023, 00:27:59,     64,    0.0,   15.8,   0.00,   0.00, 1013.4,    0.3, -999.0
24-08-2023, 00:28:09,     64,    0.0,   15.8,   0.00,   0.00, 1013.4,    0.2, -999.0
24-08-2023, 00:28:20,     64,    0.0,   15.8,   0.00,   0.00, 1013.4,    0.3, -999.0
24-08-2023, 00:28:29,     64,    0.0,   15.8,   0.00,   0.00, 1013.4,    0.3, -999.0
24-08-2023, 00:28:39,     64,    0.0,   15.8,   0.00,   0.00, 1013.4,    0.2, -999.0
24-08-2023, 00:28:49,     64,    0.0,   15.8,   0.00,   0.00, 1013.4,    0.4, -999.0
24-08-2023, 00:28:59,     64,    0.0,   15.7,   0.00,   0.00, 1013.4,    0.3, -999.0
24-08-2023, 00:29:09,     64,    0.0,   15.8,   0.00,   0.00, 1013.4,    0.2, -999.0
24-08-2023, 00:29:19,     63,    0.0,   15.8,   0.00,   0.00, 1013.4,    0.2, -999.0
24-08-2023, 00:29:29,     63,    0.0,   15.7,   0.00,   0.00, 1013.4,    0.2, -999.0
24-08-2023, 00:29:39,     64,    0.0,   15.8,   0.00,   0.00, 1013.4,    0.3, -999.0
24-08-2023, 00:29:49,     64,    0.0,   15.8,   0.00,   0.00, 1013.4,    0.3, -999.0
24-08-2023, 00:29:59,     64,    0.0,   15.8,   0.00,   0.00, 1013.4,    0.3, -999.0
24-08-2023, 00:30:09,     64,    0.0,   15.8,   0.00,   0.00, 1013.4,    0.3, -999.0
24-08-2023, 00:30:21,     64,    0.0,   15.7,   0.00,   0.00, 1013.4,    0.3, -999.0
24-08-2023, 00:30:29,     64,    0.0,   15.8,   0.00,   0.00, 1013.5,    0.4, -999.0
24-08-2023, 00:30:39,     64,    0.0,   15.8,   0.00,   0.00, 1013.5,    0.2, -999.0
24-08-2023, 00:30:49,     64,    0.0,   15.8,   0.00,   0.00, 1013.5,    0.3, -999.0
24-08-2023, 00:30:59,     64,    0.0,   15.8,   0.00,   0.00, 1013.5,    0.2, -999.0
24-08-2023, 00:31:09,     64,    0.0,   15.8,   0.00,   0.00, 1013.5,    0.3, -999.0
24-08-2023, 00:31:19,     64,    0.0,   15.7,   0.00,   0.00, 1013.5,    0.3, -999.0
24-08-2023, 00:31:29,     64,    0.0,   15.8,   0.00,   0.00, 1013.5,    0.1, -999.0
24-08-2023, 00:31:39,     64,    0.0,   15.8,   0.00,   0.00, 1013.5,    0.3, -999.0
24-08-2023, 00:31:49,     64,    0.0,   15.8,   0.00,   0.00, 1013.5,    0.3, -999.0
24-08-2023, 00:31:59,     64,    0.0,   15.7,   0.00,   0.00, 1013.5,    0.2, -999.0
24-08-2023, 00:32:08,     64,    0.0,   15.7,   0.00,   0.00, 1013.5,    0.2, -999.0
24-08-2023, 00:32:19,     64,    0.0,   15.7,   0.00,   0.00, 1013.5,    0.2, -999.0
24-08-2023, 00:32:29,     64,    0.0,   15.7,   0.00,   0.00, 1013.5,    0.2, -999.0
24-08-2023, 00:32:38,     64,    0.0,   15.7,   0.00,   0.00, 1013.5,    0.2, -999.0
24-08-2023, 00:32:49,     64,    0.0,   15.7,   0.00,   0.00, 1013.5,    0.2, -999.0
24-08-2023, 00:32:59,     64,    0.0,   15.8,   0.00,   0.00, 1013.5,    0.3, -999.0
24-08-2023, 00:33:09,     63,    0.0,   15.7,   0.00,   0.00, 1013.5,    0.2, -999.0
24-08-2023, 00:33:18,     64,    0.0,   15.7,   0.00,   0.00, 1013.5,    0.4, -999.0
24-08-2023, 00:33:29,     65,    0.0,   15.7,   0.00,   0.00, 1013.5,    0.4, -999.0
24-08-2023, 00:33:39,     64,    0.0,   15.7,   0.00,   0.00, 1013.5,    0.2, -999.0
24-08-2023, 00:33:48,     64,    0.0,   15.6,   0.00,   0.00, 1013.5,    0.2, -999.0
24-08-2023, 00:33:58,     64,    0.0,   15.7,   0.00,   0.00, 1013.5,    0.2, -999.0
24-08-2023, 00:34:09,     64,    0.0,   15.7,   0.00,   0.00, 1013.4,    0.3, -999.0
24-08-2023, 00:34:18,     64,    0.0,   15.7,   0.00,   0.00, 1013.5,    0.3, -999.0
24-08-2023, 00:34:28,     64,    0.0,   15.7,   0.00,   0.00, 1013.5,    0.3, -999.0
24-08-2023, 00:34:38,     64,    0.0,   15.7,   0.00,   0.00, 1013.4,    0.2, -999.0
24-08-2023, 00:34:48,     64,    0.0,   15.6,   0.00,   0.00, 1013.4,    0.2, -999.0
24-08-2023, 00:34:58,     64,    0.0,   15.7,   0.00,   0.00, 1013.4,    0.3, -999.0
24-08-2023, 00:35:08,     64,    0.0,   15.7,   0.00,   0.00, 1013.4,    0.3, -999.0
24-08-2023, 00:35:18,     64,    0.0,   15.6,   0.00,   0.00, 1013.4,    0.1, -999.0
24-08-2023, 00:35:28,     64,    0.0,   15.6,   0.00,   0.00, 1013.4,    0.3, -999.0
24-08-2023, 00:35:38,     63,    0.0,   15.6,   0.00,   0.00, 1013.4,    0.4, -999.0
24-08-2023, 00:35:48,     64,    0.0,   15.7,   0.00,   0.00, 1013.4,    0.3, -999.0
24-08-2023, 00:35:58,     64,    0.0,   15.6,   0.00,   0.00, 1013.4,    0.2, -999.0
24-08-2023, 00:36:08,     64,    0.0,   15.7,   0.00,   0.00, 1013.4,    0.3, -999.0
24-08-2023, 00:36:18,     64,    0.0,   15.7,   0.00,   0.00, 1013.4,    0.3, -999.0
24-08-2023, 00:36:28,     64,    0.0,   15.7,   0.00,   0.00, 1013.4,    0.3, -999.0
24-08-2023, 00:36:38,     64,    0.0,   15.7,   0.00,   0.00, 1013.4,    0.3, -999.0
24-08-2023, 00:36:48,     64,    0.0,   15.6,   0.00,   0.00, 1013.4,    0.3, -999.0
24-08-2023, 00:36:58,     64,    0.0,   15.6,   0.00,   0.00, 1013.4,    0.2, -999.0
24-08-2023, 00:37:08,     64,    0.0,   15.6,   0.00,   0.00, 1013.5,    0.2, -999.0
24-08-2023, 00:37:18,     64,    0.0,   15.7,   0.00,   0.00, 1013.4,    0.4, -999.0
24-08-2023, 00:37:28,     64,    0.0,   15.7,   0.00,   0.00, 1013.5,    0.1, -999.0
24-08-2023, 00:37:38,     64,    0.0,   15.7,   0.00,   0.00, 1013.5,    0.3, -999.0
24-08-2023, 00:37:48,     64,    0.0,   15.6,   0.00,   0.00, 1013.5,    0.2, -999.0
24-08-2023, 00:37:58,     64,    0.0,   15.6,   0.00,   0.00, 1013.5,    0.2, -999.0
24-08-2023, 00:38:08,     64,    0.0,   15.7,   0.00,   0.00, 1013.5,    0.2, -999.0
24-08-2023, 00:38:18,     64,    0.0,   15.6,   0.00,   0.00, 1013.5,    0.2, -999.0
24-08-2023, 00:38:28,     64,    0.0,   15.7,   0.00,   0.00, 1013.5,    0.3, -999.0
24-08-2023, 00:38:38,     64,    0.0,   15.7,   0.00,   0.00, 1013.5,    0.1, -999.0
24-08-2023, 00:38:48,     64,    0.0,   15.7,   0.00,   0.00, 1013.5,    0.2, -999.0
24-08-2023, 00:38:58,     64,    0.0,   15.7,   0.00,   0.00, 1013.5,    0.2, -999.0
24-08-2023, 00:39:07,     64,    0.0,   15.7,   0.00,   0.00, 1013.5,    0.2, -999.0
24-08-2023, 00:39:18,     64,    0.0,   15.7,   0.00,   0.00, 1013.5,    0.2, -999.0
24-08-2023, 00:39:28,     64,    0.0,   15.6,   0.00,   0.00, 1013.5,    0.2, -999.0
24-08-2023, 00:39:37,     64,    0.0,   15.7,   0.00,   0.00, 1013.5,    0.2, -999.0
24-08-2023, 00:39:47,     64,    0.0,   15.7,   0.00,   0.00, 1013.5,    0.2, -999.0
24-08-2023, 00:39:58,     64,    0.0,   15.7,   0.00,   0.00, 1013.5,    0.3, -999.0
24-08-2023, 00:40:07,     64,    0.0,   15.6,   0.00,   0.00, 1013.5,    0.2, -999.0
24-08-2023, 00:40:17,     64,    0.0,   15.7,   0.00,   0.00, 1013.5,    0.3, -999.0
24-08-2023, 00:40:27,     64,    0.0,   15.7,   0.00,   0.00, 1013.5,    0.2, -999.0
24-08-2023, 00:40:37,     64,    0.0,   15.7,   0.00,   0.00, 1013.5,    0.3, -999.0
24-08-2023, 00:40:47,     64,    0.0,   15.6,   0.00,   0.00, 1013.5,    0.3, -999.0
24-08-2023, 00:40:57,     64,    0.0,   15.7,   0.00,   0.00, 1013.5,    0.3, -999.0
24-08-2023, 00:41:07,     64,    0.0,   15.7,   0.00,   0.00, 1013.5,    0.2, -999.0
24-08-2023, 00:41:17,     64,    0.0,   15.7,   0.00,   0.00, 1013.5,    0.3, -999.0
24-08-2023, 00:41:27,     64,    0.0,   15.7,   0.00,   0.00, 1013.5,    0.1, -999.0
24-08-2023, 00:41:37,     64,    0.0,   15.5,   0.00,   0.00, 1013.5,    0.1, -999.0
24-08-2023, 00:41:47,     64,    0.0,   15.7,   0.00,   0.00, 1013.5,    0.3, -999.0
24-08-2023, 00:41:57,     64,    0.0,   15.7,   0.00,   0.00, 1013.5,    0.2, -999.0
24-08-2023, 00:42:07,     64,    0.0,   15.7,   0.00,   0.00, 1013.5,    0.4, -999.0
24-08-2023, 00:42:17,     64,    0.0,   15.7,   0.00,   0.00, 1013.5,    0.2, -999.0
24-08-2023, 00:42:27,     64,    0.0,   15.7,   0.00,   0.00, 1013.5,    0.2, -999.0
24-08-2023, 00:42:37,     64,    0.0,   15.7,   0.00,   0.00, 1013.5,    0.1, -999.0
24-08-2023, 00:42:47,     64,    0.0,   15.5,   0.00,   0.00, 1013.5,    0.1, -999.0
24-08-2023, 00:42:57,     64,    0.0,   15.7,   0.00,   0.00, 1013.5,    0.2, -999.0
24-08-2023, 00:43:07,     64,    0.0,   15.6,   0.00,   0.00, 1013.5,    0.3, -999.0
24-08-2023, 00:43:17,     64,    0.0,   15.7,   0.00,   0.00, 1013.5,    0.3, -999.0
24-08-2023, 00:43:27,     64,    0.0,   15.7,   0.00,   0.00, 1013.5,    0.3, -999.0
24-08-2023, 00:43:37,     64,    0.0,   15.6,   0.00,   0.00, 1013.5,    0.3, -999.0
24-08-2023, 00:43:47,     64,    0.0,   15.7,   0.00,   0.00, 1013.5,    0.3, -999.0
24-08-2023, 00:43:57,     64,    0.0,   15.7,   0.00,   0.00, 1013.5,    0.1, -999.0
24-08-2023, 00:44:07,     64,    0.0,   15.7,   0.00,   0.00, 1013.5,    0.2, -999.0
24-08-2023, 00:44:17,     64,    0.0,   15.7,   0.00,   0.00, 1013.5,    0.2, -999.0
24-08-2023, 00:44:27,     63,    0.0,   15.6,   0.00,   0.00, 1013.4,    0.2, -999.0
24-08-2023, 00:44:37,     64,    0.0,   15.7,   0.00,   0.00, 1013.5,    0.2, -999.0
24-08-2023, 00:44:47,     64,    0.0,   15.7,   0.00,   0.00, 1013.5,    0.4, -999.0
24-08-2023, 00:44:56,     64,    0.0,   15.7,   0.00,   0.00, 1013.5,    0.1, -999.0
24-08-2023, 00:45:07,     64,    0.0,   15.7,   0.00,   0.00, 1013.5,    0.2, -999.0
24-08-2023, 00:45:17,     64,    0.0,   15.7,   0.00,   0.00, 1013.5,    0.3, -999.0
24-08-2023, 00:45:27,     64,    0.0,   15.6,   0.00,   0.00, 1013.4,    0.3, -999.0
24-08-2023, 00:45:36,     64,    0.0,   15.7,   0.00,   0.00, 1013.5,    0.2, -999.0
24-08-2023, 00:45:47,     64,    0.0,   15.7,   0.00,   0.00, 1013.5,    0.2, -999.0
24-08-2023, 00:45:57,     64,    0.0,   15.6,   0.00,   0.00, 1013.5,    0.2, -999.0
24-08-2023, 00:46:06,     64,    0.0,   15.6,   0.00,   0.00, 1013.5,    0.3, -999.0
24-08-2023, 00:46:16,     64,    0.0,   15.5,   0.00,   0.00, 1013.5,    0.2, -999.0
24-08-2023, 00:46:27,     64,    0.0,   15.6,   0.00,   0.00, 1013.5,    0.1, -999.0
24-08-2023, 00:46:36,     64,    0.0,   15.6,   0.00,   0.00, 1013.5,    0.2, -999.0
24-08-2023, 00:46:46,     64,    0.0,   15.7,   0.00,   0.00, 1013.5,    0.3, -999.0